Location: Pianadetto
(44.4000°N, 10.1000°E)
Time: 02:10:06
(UTC+00:00)

Cosmos 1455 - Pass Details

Date: 26 May 2022
Orbit: 492 x 515 km, 82.5° (Epoch: 26 June)

Event Time Altitude Azimuth Distance (km) Brightness Sun altitude
Rises 02:21:09 0° 334° (NNW) 2,582 6.0 -12.1°
Reaches altitude 10° 02:23:50 10° 313° (NW) 1,693 4.8 -11.8°
Maximum altitude 02:26:14 17° 273° (W) 1,325 3.9 -11.5°
Enters shadow 02:27:22 15° 251° (WSW) 1,414 3.9 -11.3°
